Theta_e
326 328 332 337 341 344 344 338 334 331 330 330 333 331 327 331 333 332 321 321 322 322 328 335 336 338 337 335 335 337 337 337
325 324 328 331 338 343 345 340 339 336 335 337 338 335 332 332 327 321 321 322 328 326 334 335 334 338 337 335 337 336 335 335
324 324 323 326 332 340 344 344 343 339 337 337 340 339 336 334 329 321 322 331 333 334 335 335 335 337 335 333 334 334 334 334
323 324 324 322 329 335 340 343 342 339 339 339 341 338 336 334 329 322 325 336 336 336 336 334 335 334 334 334 335 336 336 336
324 324 323 324 322 326 336 341 343 343 341 341 339 337 334 332 330 327 332 336 336 337 337 336 336 335 336 336 336 335 336 335
324 324 324 324 322 322 332 338 342 344 342 339 340 339 338 336 334 328 334 337 338 339 338 337 336 335 336 336 336 334 332 329
323 324 324 324 325 322 331 338 341 343 342 340 341 341 340 339 336 330 335 338 339 337 338 336 335 333 333 331 328 322 320 321
323 323 323 324 327 328 330 336 340 342 342 341 342 341 342 338 337 334 337 338 336 336 335 334 332 330 326 319 314 314 312 311
323 323 323 325 329 334 337 337 339 341 341 341 341 341 341 338 338 337 336 336 336 334 333 331 327 321 316 314 312 308 304 303
324 323 323 324 329 334 337 337 338 340 337 338 338 340 339 338 339 337 337 335 334 332 329 326 319 313 310 307 304 303 303 303
323 323 324 326 330 332 337 337 338 333 335 337 336 339 338 339 339 337 336 335 330 327 322 315 310 307 304 303 303 303 303 302
323 324 325 329 330 333 332 334 332 333 335 336 337 339 339 340 339 335 333 329 325 319 311 307 304 304 303 303 303 302 302 301
323 325 324 326 328 331 330 332 332 334 337 341 341 340 340 339 336 333 330 325 317 309 305 304 303 303 303 303 302 301 301 301
322 323 323 322 325 330 329 332 334 337 340 342 339 339 337 334 331 328 322 313 307 304 304 304 304 303 303 301 301 300 302 303
322 321 321 321 322 326 326 328 335 338 337 339 337 337 333 330 325 318 311 305 304 304 304 304 304 303 301 300 300 301 302 302
321 321 320 319 321 324 324 326 332 336 337 336 335 331 325 321 315 308 305 304 305 305 304 304 302 301 299 299 300 301 302 302
318 319 319 319 319 322 322 328 333 335 335 334 331 323 318 312 308 305 305 305 305 304 303 302 300 299 298 299 301 301 302 302
318 318 318 318 318 319 321 326 333 334 332 329 324 319 312 308 306 306 305 305 304 303 302 299 298 298 299 301 302 302 301 299
318 318 317 317 317 318 320 320 329 324 321 318 319 311 307 306 306 305 304 304 303 301 299 298 298 300 301 302 302 300 298 297
Wind_Speed
24 22 23 24 27 28 29 34 35 36 33 32 28 28 29 25 23 23 25 24 23 22 17 16 15 14 13 13 12 10 10 9
28 23 23 25 27 30 32 35 37 38 37 32 30 32 30 28 27 28 25 24 23 23 19 19 18 15 14 14 13 13 13 10
27 27 25 30 30 32 32 35 35 39 38 35 27 25 25 25 27 28 27 25 22 22 21 19 19 16 18 19 18 16 17 19
30 31 27 31 32 34 36 37 39 41 37 34 26 21 22 24 27 30 29 26 24 23 24 23 21 21 21 22 20 19 20 19
38 38 37 34 42 39 36 36 37 39 38 34 35 33 32 31 31 30 30 29 27 26 26 25 23 23 23 23 21 19 17 15
42 42 42 39 42 44 39 37 37 37 41 41 37 31 25 22 30 33 32 30 28 27 25 22 20 18 15 19 15 11 12 7
38 37 36 34 32 41 39 37 38 38 38 41 37 37 26 32 35 36 35 32 28 26 22 18 18 17 18 16 14 10 8 6
37 37 33 31 30 33 39 38 38 38 37 38 37 36 32 31 34 36 34 33 28 23 21 20 19 18 16 14 12 10 9 9
36 37 37 31 28 30 33 37 37 36 41 37 37 35 40 29 31 34 30 29 24 23 22 21 19 17 15 13 11 11 11 11
30 31 32 33 30 32 36 35 35 38 42 41 38 40 35 32 36 31 27 25 26 24 23 22 19 16 15 13 11 10 9 9
21 23 26 29 28 28 30 32 35 40 42 41 41 41 37 33 31 31 29 27 26 26 24 21 19 16 13 11 9 8 9 10
20 16 19 21 20 23 28 35 39 40 39 36 35 35 35 34 34 32 29 26 28 26 24 20 17 15 12 9 8 9 10 11
15 12 14 17 19 22 29 36 39 37 33 35 35 36 38 37 36 31 27 30 29 26 23 19 16 14 11 10 10 11 11 11
10 13 16 19 21 23 26 34 36 35 37 36 37 39 38 38 34 32 34 33 30 26 23 20 17 14 12 11 11 11 9 8
9 11 13 15 19 23 25 31 36 38 38 39 39 41 41 38 36 36 34 30 29 26 22 19 17 13 12 12 10 9 9 9
8 10 12 15 19 22 23 30 35 38 42 42 45 43 40 39 38 36 34 31 27 24 20 18 16 14 13 11 11 11 10 9
9 12 14 18 20 23 25 36 40 43 45 46 46 45 43 41 39 36 34 30 26 23 21 18 15 14 13 12 12 11 10 7
15 15 16 18 21 24 28 37 43 47 47 49 48 47 44 42 40 36 32 30 26 24 22 18 16 14 13 13 11 10 8 9
16 17 19 21 22 25 28 34 46 49 49 44 47 46 44 41 38 36 33 29 26 25 22 19 17 15 14 13 12 11 12 12
Wind_Direction
230 227 223 221 215 209 209 215 215 214 213 216 217 218 220 217 213 211 216 216 219 219 215 207 205 205 210 220 226 239 243 252
232 229 227 223 219 211 210 212 216 214 213 212 214 216 213 213 216 219 218 217 218 214 206 205 209 213 221 234 234 243 258 255
236 232 230 230 220 217 213 213 212 217 216 214 212 211 212 213 215 217 216 213 210 203 203 212 221 223 230 240 246 250 255 264
238 238 230 239 222 216 214 213 213 218 214 211 205 202 205 207 212 215 213 207 206 208 212 220 227 234 243 249 251 253 255 258
237 236 238 232 235 229 219 213 210 212 208 205 208 206 210 215 212 208 206 207 212 216 222 229 238 241 245 250 249 251 255 246
232 232 233 232 234 233 220 211 209 207 209 211 208 203 206 206 206 209 207 209 214 221 223 223 234 246 247 236 221 230 239 226
235 233 231 228 226 228 214 207 207 205 205 207 207 211 198 210 211 207 206 211 211 219 220 233 233 227 228 230 233 218 212 214
237 233 227 220 214 217 211 204 203 203 204 204 206 212 202 208 208 204 205 203 213 211 214 223 214 211 216 218 220 232 243 255
235 232 225 219 212 208 204 201 199 200 207 204 206 205 207 201 207 207 216 217 206 206 216 216 205 204 209 216 228 243 256 263
231 230 229 225 219 209 204 199 197 201 210 208 207 205 205 193 206 208 197 205 205 206 198 195 197 204 213 225 236 248 259 271
234 230 226 218 212 209 202 201 200 210 207 206 203 201 202 205 206 202 198 201 198 189 189 193 200 205 212 222 235 251 265 274
236 220 207 203 201 200 202 202 204 207 205 205 201 202 200 196 199 194 195 193 185 188 191 195 200 207 213 228 246 259 267 274
224 212 202 198 201 195 207 206 210 209 202 196 194 193 191 192 191 194 196 187 188 190 194 198 205 210 221 232 246 260 269 266
209 207 202 203 198 191 201 207 208 200 194 193 189 189 187 186 189 187 183 187 187 189 192 194 200 212 227 245 254 256 256 263
193 198 199 197 195 191 195 199 200 196 193 189 189 186 185 187 183 183 186 186 188 186 190 197 204 216 231 243 248 245 246 251
212 201 203 200 195 191 193 197 202 192 187 186 185 184 183 181 182 182 183 184 186 189 195 201 211 222 229 231 233 235 236 243
218 202 203 202 198 194 191 196 192 191 189 186 186 182 181 180 181 182 183 184 185 192 200 208 217 221 222 220 220 217 217 225
230 231 222 210 204 196 194 195 195 190 190 186 184 183 181 182 182 181 182 185 191 197 203 209 211 209 208 204 198 202 208 221
246 234 235 221 202 195 188 190 197 190 185 179 182 181 180 179 179 181 184 188 195 199 201 201 204 199 193 185 187 198 208 213